Back to catalog

ATLAS 5 CENTAUR DEB

LostHEO
NORAD 49376·DEBRIS·🇺🇸 United States

Launched Oct 17, 2018 from Cape Canaveral Space Force Station

Loading…

Next Passes (next 24 hours)

TLE

StaleSource: Space-Track

Epoch: Feb 18, 2024, 07:08 UTC

1 49376U 18079GD  24049.29728649 -.00000038  00000-0  00000+0 0  9991
2 49376   9.8232 159.0170 4963242  92.2534 322.7823  1.65679322 14893

Track ATLAS 5 CENTAUR DEB in real time with AllMySat

Download on the App Store